TimeCST,TemperatureF,Dew PointF,Humidity,Sea Level PressureIn,VisibilityMPH,Wind Direction,Wind SpeedMPH,Gust SpeedMPH,PrecipitationIn,Events,Conditions,WindDirDegrees,DateUTC
12:01 AM,-11.2,-18.4,70,30.55,5.0,NW,16.1,-,N/A,,Overcast,320,2014-01-23 06:01:00
12:41 AM,-11.2,-18.4,70,30.56,10.0,NNW,17.3,-,N/A,,Overcast,330,2014-01-23 06:41:00
1:01 AM,-11.2,-18.4,70,30.56,10.0,NNW,15.0,-,N/A,,Scattered Clouds,330,2014-01-23 07:01:00
1:41 AM,-11.2,-18.4,70,30.57,10.0,NW,12.7,-,N/A,,Clear,320,2014-01-23 07:41:00
2:01 AM,-11.2,-18.4,70,30.58,10.0,NNW,12.7,-,N/A,,Clear,330,2014-01-23 08:01:00
2:21 AM,-13.0,-20.2,70,30.58,10.0,NNW,12.7,-,N/A,,Clear,330,2014-01-23 08:21:00
2:41 AM,-13.0,-20.2,70,30.60,10.0,NW,11.5,-,N/A,,Clear,320,2014-01-23 08:41:00
3:21 AM,-14.8,-20.2,77,30.62,10.0,NW,10.4,-,N/A,,Clear,320,2014-01-23 09:21:00
4:01 AM,-14.8,-22.0,70,30.64,10.0,NW,10.4,-,N/A,,Clear,320,2014-01-23 10:01:00
4:21 AM,-14.8,-22.0,70,30.63,10.0,NW,10.4,-,N/A,,Clear,320,2014-01-23 10:21:00
4:41 AM,-14.8,-22.0,70,30.65,10.0,NW,9.2,-,N/A,,Clear,310,2014-01-23 10:41:00
5:01 AM,-16.6,-23.8,70,30.65,10.0,NW,9.2,-,N/A,,Clear,320,2014-01-23 11:01:00
5:41 AM,-16.6,-23.8,70,30.66,10.0,NNW,10.4,-,N/A,,Clear,330,2014-01-23 11:41:00
6:01 AM,-16.6,-23.8,70,30.66,10.0,NW,10.4,-,N/A,,Clear,320,2014-01-23 12:01:00
6:21 AM,-16.6,-23.8,70,30.67,10.0,NW,10.4,-,N/A,,Clear,320,2014-01-23 12:21:00
6:41 AM,-16.6,-23.8,70,30.67,10.0,NW,9.2,-,N/A,,Clear,320,2014-01-23 12:41:00
7:01 AM,-16.6,-23.8,70,30.68,10.0,WNW,6.9,-,N/A,,Clear,300,2014-01-23 13:01:00
7:41 AM,-16.6,-23.8,70,30.68,10.0,NW,8.1,-,N/A,,Clear,310,2014-01-23 13:41:00
8:01 AM,-16.6,-23.8,70,30.69,10.0,NW,9.2,-,N/A,,Clear,310,2014-01-23 14:01:00
8:21 AM,-16.6,-23.8,70,30.69,10.0,NW,6.9,-,N/A,,Clear,320,2014-01-23 14:21:00
8:41 AM,-14.8,-22.0,70,30.69,10.0,NW,9.2,-,N/A,,Clear,310,2014-01-23 14:41:00
9:01 AM,-14.8,-22.0,70,30.69,10.0,NW,10.4,-,N/A,,Clear,310,2014-01-23 15:01:00
9:21 AM,-14.8,-20.2,77,30.70,10.0,NW,12.7,-,N/A,,Scattered Clouds,310,2014-01-23 15:21:00
9:41 AM,-13.0,-20.2,70,30.70,10.0,NW,9.2,-,N/A,,Clear,310,2014-01-23 15:41:00
10:01 AM,-13.0,-20.2,70,30.71,10.0,NW,12.7,-,N/A,,Clear,320,2014-01-23 16:01:00
10:21 AM,-11.2,-18.4,70,30.72,10.0,NW,10.4,-,N/A,,Clear,320,2014-01-23 16:21:00
10:41 AM,-11.2,-18.4,70,30.72,10.0,NW,9.2,-,N/A,,Clear,320,2014-01-23 16:41:00
11:01 AM,-9.4,-18.4,65,30.72,10.0,NW,5.8,-,N/A,,Clear,320,2014-01-23 17:01:00
11:21 AM,-9.4,-16.6,71,30.71,10.0,WNW,6.9,-,N/A,,Clear,300,2014-01-23 17:21:00
12:01 PM,-7.6,-14.8,71,30.70,10.0,WNW,12.7,-,N/A,,Scattered Clouds,290,2014-01-23 18:01:00
12:41 PM,-5.8,-13.0,71,30.68,7.0,West,11.5,-,N/A,,Clear,280,2014-01-23 18:41:00
1:21 PM,-4.0,-11.2,71,30.66,10.0,West,13.8,-,N/A,,Clear,280,2014-01-23 19:21:00
2:01 PM,-2.2,-11.2,66,30.63,10.0,West,9.2,-,N/A,,Clear,270,2014-01-23 20:01:00
2:21 PM,-2.2,-9.4,71,30.62,10.0,West,9.2,-,N/A,,Clear,260,2014-01-23 20:21:00
2:41 PM,-2.2,-9.4,71,30.62,10.0,West,9.2,-,N/A,,Clear,260,2014-01-23 20:41:00
3:01 PM,-0.4,-9.4,66,30.61,7.0,WSW,9.2,-,N/A,,Clear,250,2014-01-23 21:01:00
3:21 PM,-0.4,-7.6,72,30.60,10.0,West,9.2,-,N/A,,Clear,260,2014-01-23 21:21:00
3:41 PM,-0.4,-7.6,72,30.59,10.0,West,8.1,-,N/A,,Clear,260,2014-01-23 21:41:00
4:01 PM,-0.4,-7.6,72,30.58,10.0,WSW,5.8,-,N/A,,Clear,250,2014-01-23 22:01:00
4:21 PM,-0.4,-7.6,72,30.56,10.0,SW,8.1,-,N/A,,Clear,230,2014-01-23 22:21:00
4:41 PM,-0.4,-7.6,72,30.55,10.0,SW,6.9,-,N/A,,Clear,230,2014-01-23 22:41:00
5:01 PM,-0.4,-7.6,72,30.54,10.0,SW,3.5,-,N/A,,Clear,220,2014-01-23 23:01:00
5:21 PM,-0.4,-7.6,72,30.53,10.0,South,2.3,-,N/A,,Clear,190,2014-01-23 23:21:00
5:41 PM,-0.4,-7.6,72,30.51,10.0,South,2.3,-,N/A,,Clear,180,2014-01-23 23:41:00
6:21 PM,-2.2,-9.4,71,30.48,10.0,South,2.3,-,N/A,,Clear,180,2014-01-24 00:21:00
6:41 PM,-2.2,-9.4,71,30.45,10.0,South,2.3,-,N/A,,Clear,190,2014-01-24 00:41:00
7:01 PM,-2.2,-9.4,71,30.43,10.0,South,5.8,-,N/A,,Clear,190,2014-01-24 01:01:00
7:41 PM,-2.2,-7.6,78,30.38,10.0,South,3.5,-,N/A,,Clear,190,2014-01-24 01:41:00
8:01 PM,-0.4,-7.6,72,30.37,10.0,South,3.5,-,N/A,,Clear,190,2014-01-24 02:01:00
8:21 PM,-0.4,-7.6,72,30.34,10.0,South,4.6,-,N/A,,Clear,190,2014-01-24 02:21:00
8:41 PM,1.4,-5.8,72,30.32,10.0,South,5.8,-,N/A,,Clear,190,2014-01-24 02:41:00
9:01 PM,1.4,-5.8,72,30.30,10.0,South,5.8,-,N/A,,Clear,190,2014-01-24 03:01:00
9:21 PM,1.4,-5.8,72,30.26,10.0,South,5.8,-,N/A,,Clear,190,2014-01-24 03:21:00
9:41 PM,3.2,-5.8,66,30.23,10.0,South,9.2,-,N/A,,Clear,190,2014-01-24 03:41:00
10:01 PM,3.2,-4.0,72,30.21,10.0,SSW,8.1,-,N/A,,Clear,200,2014-01-24 04:01:00
10:21 PM,5.0,-4.0,66,30.18,10.0,SSW,9.2,-,N/A,,Clear,200,2014-01-24 04:21:00
11:01 PM,6.8,-2.2,67,30.12,10.0,SSW,8.1,17.3,N/A,,Clear,200,2014-01-24 05:01:00
11:21 PM,8.6,-2.2,62,30.10,10.0,SSW,6.9,-,N/A,,Clear,210,2014-01-24 05:21:00
11:41 PM,8.6,-2.2,62,30.08,10.0,South,6.9,-,N/A,,Clear,190,2014-01-24 05:41:00